Location: Bartshausen
(51.8454°N, 9.8167°E)
Time: 10:22:32
(UTC+00:00)

Iridium 4 Rocket - Pass Details

Date: 24 February 2026
Orbit: 579 x 887 km, 86.9° (Epoch: 8 March)

Event Time Altitude Azimuth Distance (km) Brightness Sun altitude
Rises 18:31:04 0° 356° (N) 2,959 6.7 -16.1°
Reaches altitude 10° 18:33:22 10° 358° (N) 2,006 5.8 -16.4°
Maximum altitude 18:37:46 82° 87° (E) 610 2.9 -17.1°
Drops below altitude 10° 18:41:54 10° 175° (S) 1,899 5.4 -17.7°
Sets 18:44:02 0° 176° (S) 2,786 6.3 -18.1°
